Date,TemperatureHighF,TemperatureAvgF,TemperatureLowF,DewpointHighF,DewpointAvgF,DewpointLowF,HumidityHigh,HumidityAvg,HumidityLow,PressureMaxIn,PressureMinIn,WindSpeedMaxMPH,WindSpeedAvgMPH,GustSpeedMaxMPH,PrecipitationSumIn
2013-1-1,78.5,67.5,58.0,63.6,60.5,56.3,96,80,56,30.21,30.04,7,2,0,0.00
2013-1-2,77.4,67.7,60.2,69.1,64.2,58.8,98,89,71,30.09,29.99,5,1,0,0.00
2013-1-3,80.0,69.3,61.3,69.9,65.5,60.7,99,89,62,30.13,30.03,7,2,0,0.01
2013-1-4,71.2,67.6,62.6,69.5,65.1,60.8,97,92,86,30.25,30.10,3,0,0,0.15
2013-1-5,80.1,68.9,61.6,68.6,64.2,60.4,97,86,66,30.27,30.15,4,1,0,0.00
2013-1-6,81.2,71.7,65.7,71.4,68.0,65.1,99,89,68,30.19,30.05,5,2,0,0.00
2013-1-7,75.5,69.5,65.4,69.0,66.8,62.9,98,91,78,30.17,30.08,2,0,0,0.30
2013-1-8,84.0,72.5,64.3,71.9,67.9,62.5,98,87,59,30.20,30.09,6,1,0,0.01
2013-1-9,85.1,76.2,70.6,71.8,69.3,65.4,96,81,53,30.26,30.15,9,4,0,0.00
2013-1-10,83.0,74.8,68.8,70.0,66.5,62.3,95,77,52,30.28,30.17,12,4,0,0.00
2013-1-11,82.9,73.0,66.0,70.1,66.0,61.7,95,80,51,30.26,30.11,8,2,0,0.00
2013-1-12,83.6,74.0,67.6,70.4,67.2,65.3,93,80,56,30.18,30.06,7,2,0,0.00
2013-1-13,82.7,72.8,66.4,68.8,66.3,63.6,94,81,56,30.13,30.05,8,2,0,0.00
2013-1-14,80.3,71.5,65.2,65.9,63.9,62.5,93,78,58,30.18,30.10,7,2,0,0.00
2013-1-15,80.8,71.6,61.2,68.4,64.1,59.5,97,79,54,30.14,30.05,5,1,0,0.00
2013-1-16,81.9,72.2,64.3,68.5,65.0,60.2,97,80,48,30.10,30.00,6,1,0,0.00
2013-1-17,78.7,67.7,60.3,70.7,62.5,51.2,98,84,67,30.14,30.00,11,4,0,0.00
2013-1-18,67.7,58.4,45.1,57.1,49.7,37.3,93,73,62,30.30,30.13,9,2,0,0.00
2013-1-19,75.1,65.9,58.6,65.3,61.7,56.8,96,87,70,30.24,30.10,2,0,0,0.00
2013-1-20,77.8,68.6,63.9,70.4,64.9,62.7,97,89,68,30.17,30.02,4,1,0,0.03
2013-1-21,74.9,66.6,61.8,67.3,63.1,58.8,94,89,71,30.10,30.00,6,1,0,0.00
2013-1-22,71.0,62.6,57.3,58.7,51.5,42.0,90,68,48,30.27,30.05,4,1,0,0.00
2013-1-23,75.1,61.9,52.6,51.7,43.8,39.6,68,53,33,30.34,30.24,3,0,0,0.00
2013-1-24,77.7,61.5,49.3,55.3,47.9,38.1,94,66,26,30.33,30.22,4,0,0,0.00
2013-1-25,78.4,62.4,50.5,56.6,51.9,48.3,95,71,41,30.31,30.18,4,0,0,0.00
2013-1-26,80.4,64.2,52.1,56.7,51.5,47.3,88,67,32,30.27,30.16,4,1,0,0.00
2013-1-27,79.6,67.1,53.8,62.3,56.4,51.5,94,72,43,30.29,30.19,4,1,0,0.00
2013-1-28,82.1,72.2,64.7,65.1,62.6,60.4,88,73,52,30.31,30.19,10,2,0,0.00
2013-1-29,82.7,72.3,64.7,68.7,65.8,62.3,95,81,56,30.23,30.09,9,3,0,0.00
2013-1-30,80.0,72.6,66.7,68.8,66.6,64.3,93,82,62,30.10,29.96,11,5,0,0.00
2013-1-31,72.0,62.8,49.8,69.9,52.8,35.0,96,73,35,30.22,29.93,10,4,0,0.15
2013-2-1,71.5,56.5,43.7,45.1,38.1,32.3,81,54,28,30.33,30.22,2,0,0,0.00
2013-2-2,77.1,59.7,46.1,52.9,45.2,34.3,87,61,35,30.28,30.13,3,0,0,0.00
2013-2-3,74.9,60.3,49.8,56.3,46.2,34.6,89,64,26,30.22,30.09,5,1,0,0.00
2013-2-4,72.6,59.0,47.2,52.7,45.0,23.5,95,67,16,30.16,30.04,4,1,0,0.01
2013-2-5,77.0,64.8,51.4,60.9,53.1,45.2,88,68,47,30.09,30.00,5,1,0,0.00
2013-2-6,80.3,69.5,59.1,65.9,60.8,56.0,93,75,53,30.12,30.02,4,1,0,0.00
2013-2-7,79.4,71.4,63.8,66.4,64.4,61.8,95,80,55,30.07,29.93,8,3,0,0.00
2013-2-8,82.1,71.9,61.2,69.7,63.5,52.1,95,78,38,30.07,29.90,8,3,0,0.00
2013-2-9,80.4,67.6,56.2,63.6,59.2,54.4,97,76,49,30.17,30.06,4,1,0,0.00
2013-2-10,80.9,71.1,63.8,64.4,62.1,59.5,89,74,49,30.24,30.13,9,4,0,0.00
2013-2-11,80.4,71.6,63.8,67.3,64.7,61.5,93,80,60,30.20,30.08,7,3,0,0.00
2013-2-12,79.9,72.3,65.9,70.9,68.1,64.2,97,87,73,30.11,29.96,9,3,0,0.00
2013-2-13,80.2,74.4,65.5,73.2,71.0,58.1,97,90,75,30.00,29.90,9,4,0,0.01
2013-2-14,71.1,63.3,59.8,69.0,60.9,56.7,97,92,74,30.03,29.90,8,1,0,2.44
2013-2-15,69.0,63.3,59.8,62.9,60.6,57.6,97,91,80,30.07,29.95,3,0,0,0.07
2013-2-16,68.4,61.3,56.4,59.7,52.4,41.8,91,73,54,30.11,29.93,12,5,0,0.00
2013-2-17,62.1,51.9,42.0,43.2,29.7,22.9,63,44,25,30.34,30.11,9,2,0,0.00
2013-2-18,70.6,55.5,40.4,52.1,41.0,27.3,79,59,40,30.34,30.21,9,2,0,0.00
2013-2-19,77.1,65.5,53.0,64.4,58.1,50.2,95,78,61,30.22,30.09,6,2,0,0.00
2013-2-20,84.3,68.1,57.7,66.7,60.1,56.5,99,78,39,30.12,30.00,5,1,0,0.00
2013-2-21,80.9,70.7,62.7,68.2,64.2,60.3,97,81,56,30.10,29.99,5,1,0,0.00
2013-2-22,82.6,72.8,65.2,71.2,67.4,63.5,97,84,62,30.09,29.99,7,3,0,0.00
2013-2-23,80.9,74.0,68.5,73.5,70.6,66.8,97,90,76,30.03,29.92,9,4,0,0.00
2013-2-24,82.6,74.5,69.3,72.6,70.0,67.9,99,87,63,29.99,29.91,7,2,0,0.01
2013-2-25,81.9,74.6,67.8,73.6,70.4,66.5,97,87,73,29.92,29.79,8,2,0,0.00
2013-2-26,80.7,74.8,67.6,74.1,71.0,65.5,95,88,78,29.90,29.75,12,5,0,0.08
2013-2-27,74.9,68.4,63.9,65.7,62.8,59.1,98,83,65,29.99,29.87,4,1,0,0.01
2013-2-28,73.2,65.0,59.7,60.4,56.9,55.2,89,76,54,30.03,29.92,6,2,0,0.00
2013-3-1,66.1,61.5,57.2,58.7,50.3,41.2,81,67,54,30.03,29.93,7,2,0,0.00
2013-3-2,61.1,56.5,52.8,48.0,43.7,41.1,72,62,51,30.07,29.99,8,3,0,0.00
2013-3-3,60.1,52.5,43.0,49.2,43.8,36.3,93,73,54,30.18,29.99,9,2,0,0.08
2013-3-4,66.7,53.6,42.2,49.2,41.6,34.9,89,66,35,30.24,30.13,5,1,0,0.00
2013-3-5,72.2,60.5,48.1,59.4,53.1,44.7,95,78,58,30.18,30.08,7,2,0,0.00
2013-3-6,67.8,62.3,52.5,62.9,52.1,42.5,94,71,43,30.15,30.01,8,4,0,0.01
2013-3-7,67.2,55.0,45.2,48.7,42.0,35.3,83,63,37,30.23,30.12,6,2,0,0.00
2013-3-8,75.5,58.9,44.8,53.0,47.3,41.2,89,69,32,30.23,30.12,6,2,0,0.00
2013-3-9,77.3,64.2,50.8,55.0,50.3,42.3,90,65,30,30.21,30.10,3,1,0,0.00
2013-3-10,78.9,67.9,58.8,60.9,55.8,53.2,84,67,43,30.17,30.03,10,3,0,0.00
2013-3-11,77.4,69.5,62.0,63.6,59.8,57.6,90,73,53,30.10,29.92,10,4,0,0.00
2013-3-12,73.0,66.9,58.4,68.4,63.0,53.9,92,87,83,30.05,29.93,9,4,0,0.02
2013-3-13,78.6,63.2,53.9,54.8,48.3,38.0,92,63,24,30.18,30.03,7,3,0,0.00
2013-3-14,74.0,59.9,51.0,50.5,41.9,27.2,85,56,18,30.25,30.14,5,2,0,0.00
2013-3-15,75.8,59.3,45.2,49.3,42.4,35.0,86,58,25,30.30,30.14,6,1,0,0.00
2013-3-16,73.4,62.7,51.7,55.2,49.8,43.5,93,66,36,30.20,30.09,7,2,0,0.00
2013-3-17,76.5,65.9,55.6,61.5,57.7,53.6,95,77,53,30.14,30.01,7,2,0,0.00
2013-3-18,77.2,68.8,62.9,69.8,64.7,60.0,95,87,73,30.05,29.92,8,3,0,0.39
2013-3-19,80.3,70.7,65.9,68.9,66.1,64.4,96,86,61,30.01,29.84,12,2,0,0.04
2013-3-20,77.4,67.6,62.7,64.8,62.9,60.1,97,86,59,30.02,29.82,9,2,0,0.11
2013-3-21,75.9,64.9,56.8,63.1,51.6,39.2,96,67,28,29.98,29.86,6,2,0,0.01
2013-3-22,79.2,65.7,51.6,70.2,56.5,39.3,92,72,56,30.00,29.89,8,2,0,0.00
2013-3-23,81.2,74.5,67.9,73.5,70.2,66.4,98,87,69,29.98,29.81,9,3,0,0.18
2013-3-24,80.6,75.3,69.5,74.4,72.1,67.9,96,90,80,29.86,29.69,11,6,0,0.08
2013-3-25,76.0,69.0,57.0,73.6,54.0,34.9,95,63,26,30.06,29.76,8,4,0,0.02
2013-3-26,63.9,56.5,50.3,47.5,41.3,35.9,77,58,39,30.25,30.05,12,4,0,0.00
2013-3-27,65.0,53.4,42.9,46.9,39.4,34.2,84,61,34,30.32,30.21,6,2,0,0.00
2013-3-28,73.3,56.8,43.3,49.2,42.1,30.6,86,62,24,30.31,30.17,6,2,0,0.00
2013-3-29,76.9,62.4,49.5,53.3,45.3,39.0,83,57,26,30.33,30.18,4,1,0,0.00
2013-3-30,76.0,65.9,56.8,56.6,53.4,46.1,88,66,46,30.26,30.13,6,2,0,0.00
2013-3-31,78.1,69.0,59.6,63.4,59.5,55.1,91,73,51,30.19,30.03,8,3,0,0.00
2013-4-1,80.9,72.2,64.2,69.2,66.1,62.4,97,82,58,30.06,29.98,8,3,0,0.00
2013-4-2,82.3,72.7,66.4,68.1,65.8,62.1,97,81,52,30.10,30.00,5,2,0,0.00
2013-4-3,84.7,74.9,67.2,70.5,67.2,63.8,92,78,52,30.07,29.95,9,4,0,0.00
2013-4-4,79.5,71.6,65.6,72.8,68.2,63.5,97,89,76,30.04,29.86,14,3,0,0.47
2013-4-5,74.4,69.3,62.2,68.2,63.2,56.3,97,82,55,30.02,29.82,10,5,0,0.72
2013-4-6,78.6,66.9,59.1,62.4,58.7,55.2,89,76,52,30.10,29.98,7,2,0,0.00
2013-4-7,83.9,71.7,61.3,65.4,62.0,58.7,94,74,45,30.13,30.03,9,2,0,0.00
2013-4-8,87.4,75.3,65.2,66.0,62.2,56.5,88,66,36,30.12,30.02,6,2,0,0.00
2013-4-9,85.7,74.7,66.0,67.9,64.5,60.6,90,72,45,30.14,30.04,9,2,0,0.00
2013-4-10,86.9,76.2,67.6,72.3,68.6,65.2,92,78,55,30.10,29.96,8,3,0,0.00
2013-4-11,86.6,78.2,71.9,74.6,71.9,70.1,94,82,60,30.00,29.85,9,5,0,0.01
2013-4-12,84.3,78.6,74.5,75.5,73.6,72.2,96,85,70,29.94,29.87,10,4,0,0.00
2013-4-13,86.9,79.7,73.1,74.0,70.2,67.1,92,74,54,29.98,29.86,7,2,0,0.00
2013-4-14,86.4,78.5,71.4,75.5,71.9,68.3,93,81,58,29.97,29.85,9,4,0,0.00
2013-4-15,88.9,78.5,67.4,74.0,69.4,63.4,92,75,54,30.07,29.93,6,2,0,0.08
2013-4-16,92.6,79.6,70.7,74.9,71.3,68.1,96,77,46,30.13,30.01,6,2,0,0.00
2013-4-17,87.8,78.7,69.6,71.0,68.0,64.1,93,72,48,30.12,30.00,6,1,0,0.00
2013-4-18,87.4,79.1,73.2,75.1,70.2,66.5,92,75,54,30.05,29.94,8,4,0,0.06
2013-4-19,86.7,79.2,72.4,75.2,72.7,70.0,95,82,60,30.02,29.94,8,4,0,0.00
2013-4-20,87.5,78.6,70.6,75.5,71.9,68.5,97,81,59,30.12,29.96,8,2,0,0.14
2013-4-21,87.7,73.1,63.4,72.4,67.9,62.2,97,85,54,30.12,29.98,8,1,0,1.31
2013-4-22,81.0,73.6,67.9,73.6,68.9,66.7,97,86,70,30.08,29.94,6,1,0,0.76
2013-4-23,87.4,75.5,66.6,70.8,66.2,62.7,95,75,48,30.09,29.98,7,2,0,0.00
2013-4-24,86.4,73.3,63.3,69.5,63.9,61.0,93,75,46,30.14,30.05,7,2,0,0.00
2013-4-25,84.6,81.0,78.5,66.6,64.6,62.5,64,58,48,30.18,30.15,4,2,0,0.00
2013-4-26,85.4,80.4,74.9,67.0,65.2,63.2,74,60,51,30.23,30.13,6,2,0,0.00
2013-4-27,85.9,77.0,68.1,67.7,65.1,62.2,92,68,47,30.20,30.05,7,3,0,0.00
2013-4-28,72.5,69.5,68.9,65.7,64.5,63.6,87,84,75,30.11,30.04,4,2,0,0.00
2013-5-2,74.5,71.6,69.0,70.2,68.1,67.1,95,89,79,29.87,29.81,5,1,0,0.43
2013-5-3,80.1,69.7,64.9,71.3,66.9,64.0,98,92,69,29.85,29.76,3,1,0,0.01
2013-5-4,76.9,73.1,71.0,68.5,67.0,65.9,91,82,72,29.82,29.75,8,4,0,0.00
2013-5-5,79.9,72.1,65.9,68.3,58.9,49.7,90,66,35,29.97,29.79,8,4,0,0.00
2013-5-6,77.7,70.5,62.6,66.5,62.3,58.2,93,76,59,30.02,29.93,7,2,0,0.00
2013-5-7,77.1,69.1,59.7,63.7,60.4,55.8,93,75,59,30.07,29.99,9,2,0,0.00
2013-5-8,79.6,69.8,62.7,64.5,62.0,57.0,96,78,46,30.14,30.05,6,1,0,0.00
2013-5-12,84.9,81.4,77.1,75.2,73.4,70.4,88,77,68,30.05,29.98,8,4,0,0.00
2013-5-13,84.9,77.6,70.5,73.9,67.9,53.1,94,73,54,30.12,30.00,6,2,0,0.00
2013-5-14,86.7,74.3,62.8,61.2,56.8,52.4,81,56,31,30.18,30.08,5,1,0,0.00
2013-5-15,86.0,75.6,63.4,63.9,60.9,58.0,85,62,41,30.19,30.07,6,2,0,0.00
2013-5-16,87.0,76.7,67.5,66.4,62.4,55.8,85,64,39,30.11,29.99,7,2,0,0.00
2013-5-17,87.7,78.1,68.8,71.2,66.1,60.3,90,68,41,30.08,30.02,7,2,0,0.00
2013-5-18,88.9,80.2,71.5,72.8,69.2,65.9,95,71,49,30.10,30.00,7,2,0,0.00
2013-5-19,89.3,78.8,73.8,73.2,71.0,66.6,92,78,50,30.09,29.97,7,1,0,0.12
2013-5-20,89.6,77.6,72.1,75.5,70.9,66.2,94,81,47,30.07,29.96,15,1,0,0.00
2013-5-21,87.6,76.8,70.2,73.7,70.0,67.8,94,81,55,30.01,29.89,8,2,0,0.00
2013-5-22,86.7,78.3,71.2,74.5,71.3,68.1,95,80,62,29.95,29.88,7,2,0,0.00
2013-5-23,87.5,79.5,72.7,73.4,71.2,66.0,96,77,54,30.02,29.91,6,2,0,0.00
2013-5-24,90.1,81.4,73.0,75.2,70.9,62.4,94,73,46,30.07,29.97,7,2,0,0.01
2013-5-25,89.7,82.4,73.7,74.1,68.9,65.2,88,65,47,30.15,30.04,8,0,0,0.00
2013-5-26,88.7,78.3,67.6,68.5,64.8,57.4,86,65,35,30.18,30.08,3,0,0,0.00
2013-5-27,75.5,74.0,73.2,66.5,65.9,65.2,77,76,73,30.16,30.13,1,0,0,0.00
2013-5-28,86.1,79.8,75.3,73.7,72.2,70.9,89,78,64,30.08,30.00,0,0,0,0.04
2013-5-29,84.7,77.2,73.0,73.7,71.5,69.8,94,83,63,30.09,30.00,0,0,0,0.08
2013-5-30,85.6,78.0,72.5,76.3,72.3,70.0,93,83,69,30.05,29.96,0,0,0,0.23
2013-5-31,84.6,78.6,73.7,75.8,73.1,70.7,93,84,70,30.05,29.98,0,0,0,0.00
2013-6-1,88.2,78.5,74.4,77.0,73.8,71.8,96,86,61,30.03,29.94,0,0,0,1.13
2013-6-2,87.8,80.0,72.9,76.4,74.1,71.6,97,83,61,30.00,29.91,0,0,0,0.01
2013-6-3,83.1,78.8,75.9,76.1,74.3,72.4,94,86,77,30.01,29.91,0,0,0,0.07
2013-6-4,81.6,77.5,73.9,75.4,73.6,71.0,94,88,79,30.03,29.95,0,0,0,0.02
2013-6-5,79.4,77.5,76.4,76.4,74.9,73.3,96,92,82,30.01,29.86,0,0,0,0.25
2013-6-6,81.0,75.9,70.5,78.3,73.8,69.0,97,93,81,29.87,29.75,0,0,0,4.06
2013-6-7,82.9,78.2,75.2,76.3,74.0,71.0,97,88,68,29.98,29.81,0,0,0,0.03
2013-6-8,87.5,80.7,75.6,78.6,75.7,72.3,96,85,69,30.10,29.95,0,0,0,0.00
2013-6-9,90.5,81.7,74.9,77.2,75.1,72.5,97,82,57,30.10,30.00,0,0,0,0.11
2013-6-10,91.5,81.9,76.6,77.3,75.2,72.9,95,81,57,30.08,29.99,3,0,0,0.18
2013-6-11,91.9,81.1,72.2,78.9,75.2,69.6,95,84,58,30.08,29.98,15,0,0,0.90
2013-6-12,90.2,78.1,73.7,78.2,74.0,70.9,97,88,59,30.08,30.00,2,0,0,0.64
2013-6-13,88.2,79.4,71.7,76.5,73.6,70.4,98,84,62,30.05,29.92,3,0,0,0.01
2013-6-14,87.5,81.3,75.3,76.8,74.7,73.2,97,82,64,29.97,29.88,0,0,0,0.00
2013-6-15,89.2,82.2,75.5,77.2,75.0,73.4,96,80,63,30.04,29.93,0,0,0,0.00
2013-6-16,91.2,81.8,76.2,78.6,75.9,74.1,96,83,59,30.09,30.00,0,0,0,1.48
2013-6-17,92.7,83.4,75.7,77.5,75.6,72.3,97,79,53,30.07,29.98,0,0,0,0.01
2013-6-18,91.5,83.7,76.5,78.3,76.1,73.6,95,79,58,30.07,29.96,0,0,0,0.22
2013-6-19,91.1,81.3,76.5,78.2,74.7,70.5,94,81,55,30.05,29.97,11,1,0,0.01
2013-6-20,89.3,79.5,73.6,78.8,74.4,69.1,96,85,63,30.10,30.02,11,2,0,0.61
2013-6-21,88.5,79.5,74.8,77.9,73.5,70.7,94,83,62,30.11,30.03,9,2,0,0.36
2013-6-22,93.8,82.6,75.5,75.8,73.3,67.4,95,76,44,30.11,30.01,6,2,0,0.01
2013-6-23,91.0,79.9,74.8,76.9,74.4,71.8,96,84,55,30.12,30.05,9,2,0,0.36
2013-6-24,91.5,82.7,76.5,76.5,74.5,71.4,92,78,53,30.16,30.05,10,4,0,0.00
2013-6-25,93.9,83.1,76.8,76.1,73.8,70.8,89,75,48,30.14,30.00,10,3,0,0.00
2013-6-26,88.0,79.7,76.5,77.3,74.5,71.3,93,85,63,30.07,30.00,7,2,0,0.00
2013-6-27,90.2,78.1,71.9,78.0,73.7,69.3,98,87,53,30.05,29.94,13,2,0,1.24
2013-6-28,89.0,82.2,75.4,77.1,75.1,73.7,97,80,63,29.99,29.87,7,2,0,0.00
2013-6-29,89.1,82.7,77.3,78.0,75.6,73.5,93,80,62,29.91,29.83,7,3,0,0.02
2013-6-30,87.9,81.2,75.9,77.8,76.1,74.0,97,85,67,29.91,29.83,12,4,0,1.03
2013-7-1,85.5,76.3,71.7,78.0,74.3,70.5,97,93,73,30.00,29.89,12,4,0,5.95
2013-7-2,86.2,77.2,71.7,78.1,74.2,69.2,98,91,74,30.09,29.96,10,3,0,1.08
2013-7-3,87.3,77.5,74.4,78.3,74.2,71.9,96,90,71,30.11,30.04,9,4,0,0.75
2013-7-4,88.7,78.6,73.2,77.9,74.2,71.7,95,87,66,30.14,30.05,10,4,0,0.13
2013-7-5,87.7,78.5,75.1,77.2,74.2,71.7,96,87,65,30.13,30.03,13,4,0,0.45
2013-7-6,91.0,82.5,76.2,77.4,75.0,72.5,95,79,57,30.10,30.00,10,5,0,0.00
2013-7-7,91.4,82.3,75.9,78.1,75.1,73.3,96,80,58,30.11,30.00,11,4,0,0.05
2013-7-8,92.3,82.1,77.1,76.5,73.8,70.4,93,77,54,30.14,30.06,9,3,0,0.00
2013-7-9,89.6,80.4,74.7,77.0,74.1,71.1,94,82,60,30.14,30.04,8,1,0,0.14
2013-7-10,86.1,78.8,73.9,76.3,73.6,70.9,96,85,62,30.08,30.04,6,1,0,0.00
2013-7-16,86.0,79.0,74.5,74.6,72.9,71.7,94,82,67,30.13,30.06,13,3,0,0.05
2013-7-17,85.2,78.6,73.9,75.7,73.4,69.5,96,85,67,30.13,30.03,16,3,0,0.15
2013-7-18,81.1,75.1,71.8,75.8,73.0,70.1,97,93,82,30.11,30.05,7,2,0,1.07
2013-7-19,88.4,78.1,71.7,78.8,73.8,70.5,97,87,65,30.13,30.03,8,3,0,0.46
2013-7-20,90.1,79.2,73.7,79.1,74.6,71.2,97,87,62,30.11,30.02,14,2,0,0.01
2013-7-21,88.4,81.1,75.7,79.7,76.5,71.8,98,87,71,30.13,30.04,5,2,0,0.04
2013-7-22,89.5,82.9,76.9,78.1,76.1,73.3,95,81,65,30.14,30.07,5,2,0,0.00
2013-7-23,88.8,83.2,77.7,78.5,76.4,73.5,96,81,62,30.11,29.99,6,2,0,0.00
2013-7-24,87.7,81.8,76.4,76.0,74.7,72.3,94,80,62,30.02,29.93,7,3,0,0.00
2013-7-25,87.9,83.1,78.8,78.0,75.9,74.3,89,79,71,30.02,29.91,8,3,0,0.01
2013-7-26,90.2,81.9,72.3,78.5,75.9,69.2,97,83,66,30.03,29.95,7,3,0,0.71
2013-7-29,82.7,76.5,74.9,76.1,74.4,72.8,96,93,77,30.14,30.07,13,2,0,0.34
2013-7-30,93.0,81.2,75.8,80.5,76.7,73.3,96,87,62,30.16,30.07,12,1,0,0.78
2013-7-31,91.2,82.6,76.6,79.0,75.6,72.2,96,80,57,30.12,30.00,9,2,0,0.00
2013-8-1,93.1,80.5,72.2,77.7,74.3,69.2,96,83,50,30.05,29.92,16,2,0,0.98
2013-8-2,89.8,81.4,74.9,78.4,75.4,72.6,97,83,61,30.06,29.93,7,2,0,0.00
2013-8-3,89.6,81.1,76.8,78.6,76.4,73.4,96,86,65,30.11,30.01,6,2,0,0.29
2013-8-4,89.6,83.5,78.0,80.3,77.7,75.1,97,84,66,30.10,30.01,8,2,0,0.06
2013-8-5,89.9,84.3,79.6,78.9,77.7,75.3,94,81,65,30.05,29.94,7,2,0,0.03
2013-8-6,90.4,82.2,78.6,79.8,77.2,73.3,96,86,60,29.99,29.90,8,1,0,0.19
2013-8-7,90.9,81.2,76.9,78.3,76.2,73.4,95,86,61,29.96,29.89,7,2,0,0.36
2013-8-8,92.3,81.3,75.5,78.9,75.8,72.8,96,85,55,30.01,29.92,15,4,0,0.70
2013-8-9,90.2,78.9,71.9,77.7,74.7,70.0,97,88,57,30.05,29.95,10,3,0,0.96
2013-8-10,92.9,83.8,76.2,78.4,75.1,72.5,94,77,53,30.10,30.01,9,5,0,0.00
2013-8-11,94.2,85.8,77.7,78.3,75.9,73.2,93,74,53,30.13,30.03,8,4,0,0.00
2013-8-12,94.1,85.3,77.0,77.5,74.3,70.2,93,72,47,30.13,30.00,6,2,0,0.00
2013-8-13,93.7,83.9,75.6,78.6,76.2,73.4,96,78,53,30.05,29.93,12,3,0,1.32
2013-8-14,91.0,83.1,75.5,77.5,75.5,73.1,97,79,57,30.02,29.91,5,2,0,0.00
2013-8-15,85.2,80.2,76.8,78.6,76.1,74.0,95,87,78,30.06,29.95,7,2,0,0.03
2013-8-16,94.3,84.5,78.3,79.0,76.2,71.0,95,77,52,30.05,29.94,8,2,0,0.00
2013-8-17,93.7,83.0,76.9,79.7,76.7,73.2,94,83,54,30.07,29.97,11,3,0,0.25
2013-8-18,91.2,81.7,74.3,79.5,76.4,72.2,96,85,62,30.10,29.97,9,3,0,1.37
2013-8-19,90.8,79.9,74.3,78.9,75.7,72.8,97,88,62,30.08,29.95,8,2,0,0.49
2013-8-20,89.5,80.8,73.6,78.2,75.0,71.9,96,83,62,30.06,29.98,9,2,0,0.01
2013-8-21,91.0,82.7,78.0,79.8,76.9,73.6,95,84,64,30.07,29.97,13,3,0,0.14
2013-8-22,93.1,81.3,74.3,79.7,76.1,71.5,97,86,57,30.05,29.94,8,3,0,0.97
2013-8-23,91.8,79.9,74.4,79.9,76.2,72.2,98,89,62,30.01,29.93,6,2,0,0.82
2013-8-24,93.6,81.6,75.6,78.9,75.7,72.8,97,84,52,30.13,29.97,10,2,0,0.39
2013-8-25,89.3,79.5,74.8,79.4,75.5,73.3,96,88,66,30.14,30.02,10,2,0,0.06
2013-8-26,89.9,78.8,74.1,79.3,74.9,70.6,96,89,59,30.12,29.99,9,1,0,0.62
2013-8-27,87.9,78.2,73.4,76.5,73.9,71.3,96,87,61,30.05,29.97,6,1,0,0.50
2013-8-28,87.3,79.0,73.8,76.7,73.8,71.9,96,85,61,30.04,29.97,7,2,0,0.01
2013-8-29,88.9,80.9,73.8,77.8,74.1,70.9,95,81,57,30.04,29.92,5,2,0,0.01
2013-8-30,90.1,81.2,75.9,77.8,74.9,70.3,94,82,59,30.00,29.89,6,1,0,0.02
2013-8-31,89.4,82.2,76.1,78.4,74.8,73.2,95,80,60,29.98,29.90,5,2,0,0.00
2013-9-1,89.6,81.0,75.0,78.0,75.0,72.5,94,83,63,30.00,29.92,10,2,0,0.16
2013-9-2,87.4,79.2,76.3,79.2,75.4,73.7,95,89,67,30.03,29.93,8,2,0,0.46
2013-9-3,87.2,80.9,75.4,78.5,75.8,73.3,96,85,71,30.03,29.93,4,1,0,0.01
2013-9-4,89.9,79.7,75.5,79.6,75.9,73.0,95,89,66,30.06,29.95,9,1,0,0.38
2013-9-5,93.1,82.1,75.6,80.7,76.5,72.3,98,85,52,30.08,29.98,6,2,0,0.15
2013-9-6,94.0,83.4,74.9,79.9,76.2,72.4,95,80,53,30.05,29.90,6,2,0,1.19
2013-9-7,89.4,78.6,73.7,78.5,74.3,70.0,96,88,63,30.00,29.90,9,1,0,1.52
2013-9-8,88.1,78.1,72.8,77.2,73.4,71.4,97,86,59,29.95,29.87,6,1,0,0.00
2013-9-9,92.6,86.3,80.3,77.5,75.2,72.6,84,70,53,30.00,29.91,9,3,0,0.01
2013-9-10,91.3,81.8,75.6,78.3,74.9,72.5,94,80,60,30.04,29.96,10,2,0,0.11
2013-9-11,88.9,80.8,74.9,78.1,75.0,72.7,94,83,63,30.04,29.97,10,2,0,0.00
2013-9-12,89.4,79.9,74.6,77.8,75.1,72.8,96,86,63,30.02,29.87,5,2,0,0.38
2013-9-13,90.6,80.8,73.7,76.6,74.1,72.3,97,81,57,29.91,29.80,5,1,0,0.01
2013-9-14,91.9,82.7,76.2,77.7,74.8,68.2,96,78,50,29.97,29.83,8,2,0,0.02
2013-9-15,91.6,80.5,76.8,79.3,75.2,70.9,95,85,61,30.07,29.93,19,3,0,0.01
2013-9-16,87.7,77.6,74.6,79.4,74.4,71.9,96,90,69,30.05,29.96,8,2,0,0.29
2013-9-17,86.7,76.8,73.6,78.6,74.3,72.7,98,92,74,30.03,29.91,12,1,0,0.64
2013-9-18,88.2,77.9,73.5,77.9,74.3,72.5,98,89,64,30.01,29.93,6,1,0,0.02
2013-9-19,88.7,80.2,73.6,78.1,74.9,72.1,97,85,65,30.02,29.94,5,1,0,0.01
2013-9-20,89.7,81.4,74.5,75.0,72.6,69.3,94,76,55,30.01,29.89,6,2,0,0.00
2013-9-21,88.2,80.6,73.9,74.8,72.5,70.5,91,77,60,29.93,29.77,6,2,0,0.00
2013-9-22,87.9,81.8,76.1,77.5,75.5,73.2,96,82,63,29.86,29.77,7,2,0,0.00
2013-9-23,81.3,78.1,74.8,78.1,76.3,73.9,98,94,88,29.97,29.83,7,1,0,4.42
2013-9-24,84.2,76.1,72.1,80.2,74.8,70.9,98,96,80,29.96,29.88,7,2,0,1.62
2013-9-25,76.4,75.0,73.1,75.1,73.4,70.6,98,95,90,29.90,29.83,4,1,0,0.00
2013-9-28,86.0,79.9,76.5,74.3,72.8,71.7,88,79,67,29.98,29.89,3,1,0,0.00
2013-9-29,89.5,80.4,72.1,73.8,71.3,67.0,94,75,53,29.97,29.86,6,1,0,0.00
2013-9-30,91.4,80.9,73.5,75.2,72.0,67.7,92,76,49,30.00,29.88,8,2,0,0.02
2013-10-1,89.8,79.9,74.8,76.5,73.1,71.7,93,81,56,30.03,29.93,6,2,0,0.00
2013-10-2,78.4,76.4,75.2,73.9,72.6,71.8,91,88,82,30.02,29.97,4,2,0,0.00
2013-10-4,89.6,83.5,79.2,72.8,70.9,69.0,78,66,55,30.05,29.98,6,2,0,0.00
2013-10-5,89.7,80.9,73.3,74.1,71.9,65.1,93,75,49,30.05,29.92,6,2,0,0.00
2013-10-6,88.1,80.3,72.5,75.6,73.0,68.1,95,79,56,29.98,29.87,5,2,0,0.01
2013-10-7,85.6,79.8,75.3,78.8,75.7,71.9,95,87,72,29.88,29.80,13,3,0,0.40
2013-10-8,85.3,79.4,74.3,74.9,72.7,70.3,95,81,66,29.94,29.83,7,2,0,0.01
2013-10-9,86.5,78.7,73.6,74.6,72.2,69.8,94,81,64,30.01,29.92,4,1,0,0.00
2013-10-10,89.1,78.0,68.7,73.1,70.0,66.9,95,78,52,30.04,29.94,7,1,0,0.02
2013-10-11,92.3,79.1,69.2,72.6,68.1,61.4,93,72,37,30.03,29.93,6,1,0,0.00
2013-10-12,87.5,78.1,69.9,71.9,68.4,65.5,91,73,50,30.04,29.96,5,2,0,0.00
2013-10-13,88.7,78.3,69.6,73.0,67.0,61.5,93,70,46,30.06,29.96,5,1,0,0.00
2013-10-14,88.5,78.3,68.6,70.7,67.4,64.7,91,71,46,30.03,29.91,6,1,0,0.00
2013-10-15,88.4,77.9,69.0,72.6,68.6,63.9,94,75,45,29.98,29.87,6,2,0,0.00
2013-10-16,86.3,76.7,69.6,73.4,69.9,64.7,97,81,51,29.96,29.88,5,1,0,0.00
2013-10-17,87.4,78.3,69.9,73.4,70.4,66.4,96,78,50,29.98,29.88,5,1,0,0.00
2013-10-18,90.8,80.5,73.7,74.6,72.4,68.7,95,78,49,29.99,29.88,5,1,0,0.00
2013-10-19,87.8,81.5,75.5,76.9,74.6,72.3,92,80,61,29.95,29.86,6,3,0,0.00
2013-10-20,88.9,81.8,77.1,77.5,75.1,71.3,97,81,57,29.95,29.86,4,1,0,0.04
2013-10-21,88.8,81.0,74.5,76.5,74.5,73.0,97,82,64,30.00,29.90,5,2,0,0.00
2013-10-22,87.0,80.7,75.3,78.4,75.3,72.9,96,84,67,29.96,29.83,7,3,0,0.00
2013-10-23,84.1,77.4,70.1,76.0,69.4,56.3,94,77,57,29.99,29.82,5,1,0,0.11
2013-10-24,75.5,69.8,66.3,64.2,59.2,53.3,83,69,60,30.14,29.98,2,1,0,0.00
2013-10-25,81.6,70.8,61.9,66.2,61.1,58.4,89,73,52,30.20,30.11,2,0,0,0.00
2013-10-26,86.7,71.6,61.2,66.2,60.5,54.5,90,70,34,30.18,30.06,6,1,0,0.00
2013-10-27,84.8,71.0,60.5,64.4,59.8,57.5,93,70,41,30.11,30.03,4,1,0,0.00
2013-10-28,85.6,74.1,62.9,67.2,63.8,60.3,92,72,47,30.16,30.07,4,1,0,0.00
2013-10-29,86.2,75.3,64.4,70.5,66.2,61.7,92,75,54,30.20,30.08,4,1,0,0.00
2013-10-30,86.3,75.8,66.9,70.3,66.4,62.3,95,75,45,30.20,30.06,8,2,0,0.00
2013-10-31,86.5,76.7,68.2,72.1,69.0,65.8,94,78,53,30.11,29.97,9,2,0,0.00
2013-11-1,83.8,76.2,69.1,74.1,71.4,67.6,97,86,66,30.01,29.89,7,2,0,0.00
2013-11-2,81.7,74.2,70.0,75.4,69.5,62.4,98,86,69,29.97,29.83,10,2,0,0.01
2013-11-3,81.9,71.0,62.9,62.9,55.2,47.6,88,61,32,30.07,29.95,3,1,0,0.00
2013-11-4,80.8,70.2,59.0,66.0,59.9,52.2,85,71,52,30.11,30.03,5,1,0,0.00
2013-11-5,83.4,74.5,67.5,71.9,67.8,63.5,91,80,64,30.09,30.01,7,2,0,0.00
2013-11-6,86.3,77.5,70.6,71.6,69.0,66.8,88,76,60,30.07,29.98,7,1,0,0.00
2013-11-7,84.4,74.7,67.3,72.2,68.4,65.8,96,82,60,30.04,29.94,5,1,0,0.00
2013-11-8,83.3,74.1,66.6,70.9,67.1,64.6,94,80,61,30.07,29.97,3,1,0,0.00
2013-11-9,80.3,73.4,67.4,72.2,68.2,63.6,92,84,74,30.12,30.04,9,2,0,0.00
2013-11-10,85.4,75.9,69.7,72.7,68.9,66.7,93,80,60,30.14,30.03,5,1,0,0.00
2013-11-11,86.3,76.1,68.0,71.0,67.7,65.4,94,77,51,30.13,30.03,4,1,0,0.00
2013-11-12,83.2,75.3,67.7,70.6,67.6,65.9,95,78,57,30.10,29.97,5,1,0,0.00
2013-11-13,72.6,67.2,59.4,67.7,58.5,50.7,91,74,64,30.24,30.03,3,1,0,0.00
2013-11-14,77.1,67.3,58.2,61.0,57.3,51.8,85,71,51,30.24,30.12,9,2,0,0.00
2013-11-15,79.8,72.3,66.0,69.4,64.7,59.1,85,77,68,30.15,30.01,8,2,0,0.00
2013-11-16,78.2,72.9,69.5,72.3,68.1,65.8,96,85,71,30.09,30.01,8,2,0,0.18
2013-11-17,85.8,76.0,69.6,71.9,69.5,66.5,96,82,59,30.07,29.98,7,2,0,0.00
2013-11-18,85.0,75.4,67.9,72.6,69.7,66.4,97,84,56,30.03,29.92,4,1,0,0.00
2013-11-19,84.7,76.5,70.5,73.9,71.3,69.4,98,85,63,29.95,29.86,5,2,0,0.00
2013-11-20,86.2,75.6,67.8,72.5,69.4,65.7,97,82,55,30.07,29.94,5,2,0,0.00
2013-11-21,85.0,76.9,71.8,74.8,71.9,70.0,95,85,65,30.15,30.04,6,2,0,0.00
2013-11-22,84.6,76.4,70.4,72.6,69.6,66.5,95,81,59,30.15,30.06,7,2,0,0.00
2013-11-23,85.5,74.9,66.3,71.9,67.6,63.2,91,79,56,30.10,29.97,4,1,0,0.00
2013-11-24,78.9,70.1,64.1,69.2,64.8,60.2,94,84,68,30.17,30.00,2,1,0,0.00
2013-11-25,77.3,70.6,64.1,66.2,63.0,59.7,89,78,61,30.19,30.03,12,4,0,0.00
2013-11-26,83.4,75.3,70.2,74.1,71.2,66.2,96,87,69,30.03,29.79,8,6,0,0.32
2013-11-27,74.4,68.8,52.7,72.2,61.7,47.0,96,79,57,30.18,29.77,8,4,0,0.17
2013-11-28,70.4,55.8,41.3,55.2,47.5,37.3,88,75,54,30.30,30.18,3,1,0,0.00
2013-11-29,77.5,64.2,53.4,61.7,56.3,50.8,92,77,56,30.31,30.19,3,1,0,0.00
2013-11-30,78.4,67.3,56.3,67.2,62.2,53.5,96,84,68,30.26,30.14,3,1,0,0.00
2013-12-1,74.9,66.3,61.0,67.8,63.6,59.9,98,91,77,30.16,29.97,5,0,0,0.00
2013-12-2,73.2,66.6,61.0,65.4,63.5,59.9,98,90,67,29.97,29.85,5,2,0,0.00
2013-12-3,77.5,70.0,65.3,67.3,64.7,61.2,93,84,68,29.98,29.90,6,2,0,0.01
2013-12-4,82.6,72.6,64.6,70.6,66.2,63.1,96,82,55,30.08,29.98,6,2,0,0.00
2013-12-5,82.1,73.1,67.0,70.6,67.8,65.2,95,84,60,30.16,30.06,8,2,0,0.00
2013-12-6,84.3,74.2,67.8,72.8,69.4,66.8,97,86,64,30.18,30.08,7,2,0,0.00
2013-12-7,84.5,74.4,66.7,71.5,67.6,65.1,97,80,56,30.22,30.12,5,1,0,0.01
2013-12-8,84.2,74.7,68.5,71.1,68.1,66.0,95,81,56,30.20,30.08,8,3,0,0.00
2013-12-9,84.5,74.7,69.2,72.8,68.5,66.1,96,82,57,30.17,30.07,8,2,0,0.00
2013-12-10,83.3,74.3,67.3,72.6,68.6,65.3,96,83,59,30.16,30.08,5,2,0,0.00
2013-12-11,85.2,74.3,67.0,71.9,68.4,65.3,97,83,60,30.22,30.12,5,1,0,0.00
2013-12-12,73.4,67.5,57.3,67.6,61.6,45.2,97,83,53,30.26,30.15,2,1,0,0.00
2013-12-13,77.7,65.7,53.0,64.0,57.2,45.5,92,75,59,30.24,30.08,5,2,0,0.00
2013-12-14,83.8,73.4,65.4,71.9,68.3,62.5,96,85,64,30.10,29.96,8,3,0,0.00
2013-12-15,77.3,73.1,66.5,74.1,69.7,60.4,97,89,76,30.10,29.92,6,3,0,0.41
2013-12-16,72.1,63.3,54.6,60.8,55.3,50.2,88,76,52,30.20,30.08,4,1,0,0.01
2013-12-17,77.8,62.0,49.4,63.1,54.7,45.4,91,78,54,30.23,30.11,7,1,0,0.00
2013-12-18,74.9,62.2,52.3,55.0,49.3,44.0,90,66,35,30.29,30.18,6,1,0,0.00
2013-12-19,78.2,64.0,52.8,60.8,55.2,48.4,86,74,52,30.25,30.13,8,2,0,0.00
2013-12-20,82.7,72.3,62.8,69.5,65.2,59.9,92,79,62,30.18,30.07,11,4,0,0.00
2013-12-21,83.8,75.0,68.5,72.5,69.5,66.2,95,84,66,30.13,30.02,9,5,0,0.00
2013-12-22,83.0,75.0,70.2,72.9,70.3,68.5,96,86,67,30.15,30.06,7,3,0,0.00
2013-12-23,82.1,75.4,70.5,74.5,71.5,69.0,97,88,72,30.17,30.10,7,3,0,0.00
2013-12-24,72.9,68.3,57.2,71.7,62.8,44.7,97,83,51,30.22,30.11,7,2,0,0.01
2013-12-25,75.3,71.2,64.8,65.6,63.0,59.2,82,75,70,30.15,30.09,4,2,0,0.00
2013-12-26,80.0,70.6,63.6,68.6,64.2,58.1,89,80,66,30.18,30.05,8,1,0,0.00
2013-12-27,80.9,71.4,64.0,70.8,66.0,61.8,94,84,69,30.21,30.08,3,1,0,0.00
2013-12-28,81.6,73.0,66.3,71.4,68.4,64.8,96,86,69,30.18,30.01,9,4,0,0.00
2013-12-29,77.4,73.4,68.0,74.4,70.9,64.0,97,92,86,30.02,29.92,8,4,0,0.59
2013-12-30,75.3,67.5,63.2,65.4,62.5,60.2,92,84,68,30.18,30.01,5,2,0,0.01
2013-12-31,73.0,67.9,62.6,60.6,56.6,49.5,90,68,48,30.27,30.16,3,1,0,0.00
2014-1-1,80.3,70.5,62.2,71.6,65.3,57.2,97,84,71,30.20,30.04,6,1,0,0.00
2014-1-2,79.6,72.4,67.4,72.9,69.6,66.8,98,91,76,30.03,29.88,9,3,0,0.13